This is the latest recevied weather packets stored in our database for station/object KN6CRX. If no packets are shown the sender has not sent any weather packets the latest 10 day(s).
| Time | Temp. | Humidity | Pressure | Rain* | Wind** | Luminosity | Snow |
|---|---|---|---|---|---|---|---|
| 1787786273 | 32.22° C | 26% | 1021.3 hPa | 0 mm | - | 140 W/m² | - |
| 1787785969 | 32.22° C | 24% | 1021.5 hPa | 0 mm | - | 155 W/m² | - |
| 1787785664 | 32.78° C | 24% | 1021.4 hPa | 0 mm | - | 150 W/m² | - |
| 1787785364 | 33.33° C | 21% | 1021.4 hPa | 0 mm | - | 156 W/m² | - |
| 1787785063 | 33.33° C | 22% | 1021.6 hPa | 0 mm | - | 189 W/m² | - |
| 1787784758 | 33.33° C | 22% | 1021.5 hPa | 0 mm | - | 220 W/m² | - |
| 1787784458 | 32.78° C | 22% | 1021.8 hPa | 0 mm | - | 229 W/m² | - |
| 1787784157 | 32.78° C | 22% | 1021.6 hPa | 0 mm | - | 268 W/m² | - |
| 1787783854 | 33.33° C | 24% | 1021.8 hPa | 0 mm | - | 261 W/m² | - |
| 1787783549 | 33.33° C | 22% | 1021.8 hPa | 0 mm | - | 279 W/m² | - |
| 1787783244 | 32.78° C | 22% | 1021.8 hPa | 0 mm | - | 361 W/m² | - |
| 1787782939 | 33.33° C | 21% | 1021.7 hPa | 0 mm | - | 279 W/m² | - |
| 1787782638 | 33.33° C | 21% | 1022 hPa | 0 mm | - | 330 W/m² | - |
| 1787782334 | 33.33° C | 22% | 1022.1 hPa | 0 mm | - | 494 W/m² | - |
| 1787782029 | 33.33° C | 19% | 1022.1 hPa | 0 mm | - | 526 W/m² | - |
| 1787781724 | 33.89° C | 20% | 1022.1 hPa | 0 mm | - | 281 W/m² | - |
| 1787781422 | 34.44° C | 20% | 1022.1 hPa | 0 mm | - | 327 W/m² | - |
| 1787781122 | 33.89° C | 20% | 1022.1 hPa | 0 mm | - | 771 W/m² | - |
| 1787780821 | 34.44° C | 19% | 1022.4 hPa | 0 mm | - | 723 W/m² | - |
| 1787780521 | 33.89° C | 20% | 1022.3 hPa | 0 mm | - | 721 W/m² | - |
| 1787780216 | 34.44° C | 20% | 1022.4 hPa | 0 mm | - | 701 W/m² | - |
| 1787779912 | 35° C | 19% | 1022.8 hPa | 0 mm | - | 769 W/m² | - |
| 1787779612 | 34.44° C | 19% | 1022.4 hPa | 0 mm | - | 774 W/m² | - |
| 1787779312 | 33.89° C | 19% | 1022.5 hPa | 0 mm | - | 782 W/m² | - |
| 1787779011 | 34.44° C | 19% | 1022.5 hPa | 0 mm | - | 786 W/m² | - |
* Rain latest hour (hover to see other rain measurements)
** Current wind speed in m/s (hover to see current wind gust speed)